sat.trackr.live / text

‹ back to catalog

QIANFAN-129

NORAD 69075 · 2026-104C

PAYLOAD ACTIVE UNKNOWN

§ Identity

Operator
Country
PRC
Launch date
2026-05-12
Launch site
TAISC
Launch vehicle
Mass (kg)
RCS (m²)

External: N2YO · Heavens-Above · Gunter

§ Orbital elements

Epoch: 2026-05-25T04:07:34.255200Z

Period
100.94 min
Inclination
88.9868°
Eccentricity
0.0003343
Mean motion
14.26565072 rev/d
Perigee alt
800.8 km
Apogee alt
805.6 km
Semi-major
7,181.4 km
B*
5.0215e-5
RAAN
344.2445°
Arg perigee
157.5148°
Mean anomaly
202.6193°
Rev number
182

§ Raw data

QIANFAN-1291 69075U 26104C   26145.17192425  .00000136  00000+0  50215-4 0  99952 69075  88.9868 344.2445 0003343 157.5148 202.6193 14.26565072  1828

JSON: /api/v1/satellites/69075 · /tle

For live sub-satellite position, see the globe view (requires WebGL).

§ Visibility from observer

Set your observer location to see the next 7 days of passes ≥ 10°. The values pass through the URL so the page stays shareable.

No JS? Fill the form by hand. The geolocation button needs JavaScript.